Aberdeen / Amory, MS

11:19 AM CDT on March 28, 2017 (GMT -0500)
Aberdeen / Amory

Weather History for KM40 - April, 2013

Change the Weather History Date:

Monday, April 1, 2013

  Actual Average (KCBM) Record (KCBM)
Temperature  
Mean Temperature 62 °F -  
Max Temperature 78 °F 70 °F 86 °F (2012)
Min Temperature 46 °F 48 °F 33 °F (2004)
Degree Days  
Heating Degree Days 3    
Growing Degree Days 12 (Base 50)    
Moisture  
Dew Point 45 °F    
Average Humidity 55    
Maximum Humidity 59    
Minimum Humidity 52    
Precipitation  
Precipitation 0.00 in - - ()
Sea Level Pressure  
Sea Level Pressure 30.04 in    
Wind  
Wind Speed 2 mph (NNW)    
Max Wind Speed 12 mph    
Max Gust Speed -    
Visibility 6 miles    
Events      
Averages and records for this station are not official NWS values.
T = Trace of Precipitation, MM = Missing Value Source: NWS Daily Summary

Daily Weather History Graph

Daily Weather History Graph

Search for Another Location

Airport or City:

Trip Planner

Search our weather history database for the weather conditions in past years. The results will help you decide how hot, cold, wet, or windy it might be!

Date:

Astronomy

Apr. 01, 2013 Rise Set
Actual Time 6:41 AM CDT 7:14 PM CDT
Civil Twilight 6:15 AM CDT 7:40 PM CDT
Nautical Twilight 5:46 AM CDT 8:09 PM CDT
Astronomical Twilight 5:16 AM CDT 8:39 PM CDT
Moon 12:10 AM CDT (4/1) 10:39 AM CDT (4/1)
Length of Visible Light 13h 24m
Length of Day
12h 33m
Waning Gibbous, 67% of the Moon is Illuminated
Apr 1
Waning Gibbous
Apr 2
Last Quarter
Apr 10
New
Apr 18
First Quarter
Apr 25
Full

Hourly Weather History & Observations

Time (CDT) Temp. Dew Point Humidity Pressure Visibility Wind Dir Wind Speed Gust Speed Precip Events Conditions
12:15 AM 50.0 °F 35.6 °F 58% 29.94 in 0.2 mi Calm Calm - N/A   Haze
12:35 AM 50.0 °F 33.8 °F 54% 29.95 in 0.2 mi Calm Calm - N/A   Haze
12:55 AM 50.0 °F 33.8 °F 54% 29.95 in 0.2 mi Calm Calm - N/A   Haze
1:15 AM 50.0 °F 33.8 °F 54% 29.95 in 0.2 mi Calm Calm - N/A   Haze
1:35 AM 48.2 °F 33.8 °F 58% 29.94 in 0.2 mi Calm Calm - N/A   Haze
1:55 AM 48.2 °F 32.0 °F 54% 29.95 in 0.2 mi Calm Calm - N/A   Haze
2:15 AM 46.4 °F 32.0 °F 57% 29.95 in 0.2 mi Calm Calm - N/A   Haze
2:35 AM 46.4 °F 32.0 °F 57% 29.95 in 0.2 mi Calm Calm - N/A   Haze
2:55 AM 46.4 °F 32.0 °F 57% 29.96 in 0.2 mi Calm Calm - N/A   Haze
3:15 AM 46.4 °F 32.0 °F 57% 29.96 in 0.2 mi Calm Calm - N/A   Haze
3:35 AM 48.2 °F 33.8 °F 58% 29.97 in 0.2 mi North 3.5 mph - N/A   Haze
3:55 AM 50.0 °F 33.8 °F 54% 29.97 in 0.2 mi North 3.5 mph - N/A   Haze
4:15 AM 51.8 °F 35.6 °F 54% 29.98 in 0.2 mi North 3.5 mph - N/A   Haze
4:35 AM 51.8 °F 35.6 °F 54% 29.98 in 0.2 mi NNE 3.5 mph - N/A   Haze
5:15 AM 51.8 °F 35.6 °F 54% 29.99 in 0.2 mi NNE 3.5 mph - N/A   Haze
5:35 AM 50.0 °F 33.8 °F 54% 30.00 in 0.2 mi Calm Calm - N/A   Haze
5:55 AM 50.0 °F 33.8 °F 54% 30.01 in 0.2 mi Calm Calm - N/A   Haze
6:15 AM 50.0 °F 33.8 °F 54% 30.02 in 0.2 mi Calm Calm - N/A   Haze
6:35 AM 48.2 °F 33.8 °F 58% 30.03 in 0.2 mi Calm Calm - N/A   Haze
6:55 AM 48.2 °F 33.8 °F 58% 30.04 in 0.2 mi Calm Calm - N/A   Haze
7:15 AM 48.2 °F 33.8 °F 58% 30.05 in 0.2 mi Calm Calm - N/A   Haze
7:35 AM 50.0 °F 33.8 °F 54% 30.06 in 0.2 mi Calm Calm - N/A   Haze
7:55 AM 50.0 °F 33.8 °F 54% 30.07 in 0.2 mi NW 3.5 mph - N/A   Haze
8:15 AM 50.0 °F 35.6 °F 58% 30.07 in 0.2 mi Calm Calm - N/A   Haze
8:35 AM 51.8 °F 35.6 °F 54% 30.07 in 0.2 mi Calm Calm - N/A   Haze
8:55 AM 51.8 °F 35.6 °F 54% 30.08 in 0.2 mi Calm Calm - N/A   Haze
9:15 AM 53.6 °F 37.4 °F 54% 30.09 in 0.8 mi Calm Calm - N/A   Haze
9:35 AM 55.4 °F 39.2 °F 54% 30.09 in 1.0 mi Calm Calm - N/A   Haze
9:55 AM 57.2 °F 41.0 °F 55% 30.09 in 5.0 mi Calm Calm - N/A   Haze
10:15 AM 57.2 °F 42.8 °F 59% 30.10 in 7.0 mi Calm Calm - N/A   Overcast
10:35 AM 62.6 °F 44.6 °F 52% 30.09 in 8.0 mi Calm Calm - N/A   Mostly Cloudy
10:55 AM 64.4 °F 48.2 °F 56% 30.09 in 9.0 mi WNW 3.5 mph - N/A   Partly Cloudy
11:15 AM 66.2 °F 48.2 °F 52% 30.10 in 9.0 mi Calm Calm - N/A   Clear
11:35 AM 68.0 °F 51.8 °F 56% 30.10 in 10.0 mi NW 3.5 mph - N/A   Clear
11:55 AM 69.8 °F 53.6 °F 56% 30.09 in 10.0 mi ENE 3.5 mph - N/A   Clear
12:15 PM 71.6 °F 55.4 °F 57% 30.09 in 10.0 mi Calm Calm - N/A   Clear
12:35 PM 73.4 °F 55.4 °F 53% 30.09 in 10.0 mi SW 4.6 mph - N/A   Clear
12:55 PM 75.2 °F 57.2 °F 53% 30.08 in 10.0 mi SW 4.6 mph - N/A   Scattered Clouds
1:15 PM 75.2 °F 57.2 °F 53% 30.08 in 10.0 mi Calm Calm - N/A   Mostly Cloudy
1:35 PM 73.4 °F 57.2 °F 57% 30.08 in 10.0 mi NNW 3.5 mph - N/A   Mostly Cloudy
1:55 PM 73.4 °F 57.2 °F 57% 30.07 in 10.0 mi Calm Calm - N/A   Partly Cloudy
2:15 PM 77.0 °F 60.8 °F 57% 30.06 in 10.0 mi WSW 5.8 mph - N/A   Clear
2:35 PM 78.8 °F 60.8 °F 54% 30.05 in 10.0 mi WNW 5.8 mph - N/A   Scattered Clouds
2:55 PM 77.0 °F 60.8 °F 57% 30.05 in 10.0 mi SW 5.8 mph - N/A   Partly Cloudy
3:15 PM 75.2 °F 59.0 °F 57% 30.04 in 9.0 mi WNW 8.1 mph - N/A   Clear
3:35 PM 78.8 °F 60.8 °F 54% 30.04 in 10.0 mi West 5.8 mph - N/A   Clear
3:55 PM 77.0 °F 60.8 °F 57% 30.03 in 10.0 mi North 11.5 mph - N/A   Partly Cloudy
4:15 PM 77.0 °F 60.8 °F 57% 30.02 in 10.0 mi North 6.9 mph - N/A   Partly Cloudy
4:35 PM 77.0 °F 59.0 °F 54% 30.02 in 10.0 mi NNW 6.9 mph - N/A   Clear
4:55 PM 77.0 °F 60.8 °F 57% 30.02 in 10.0 mi WNW 4.6 mph - N/A   Clear
5:15 PM 75.2 °F 59.0 °F 57% 30.02 in 10.0 mi NNW 6.9 mph - N/A   Clear
5:35 PM 75.2 °F 57.2 °F 53% 30.02 in 9.0 mi NW 4.6 mph - N/A   Partly Cloudy
5:55 PM 73.4 °F 57.2 °F 57% 30.02 in 10.0 mi NW 6.9 mph - N/A   Scattered Clouds
6:15 PM 73.4 °F 57.2 °F 57% 30.03 in 10.0 mi NNW 3.5 mph - N/A   Scattered Clouds
6:35 PM 71.6 °F 55.4 °F 57% 30.03 in 9.0 mi NW 3.5 mph - N/A   Clear
6:55 PM 69.8 °F 51.8 °F 53% 30.03 in 10.0 mi Calm Calm - N/A   Partly Cloudy
7:15 PM 66.2 °F 50.0 °F 56% 30.04 in 10.0 mi Calm Calm - N/A   Partly Cloudy
7:35 PM 64.4 °F 46.4 °F 52% 30.04 in 10.0 mi NNW 3.5 mph - N/A   Partly Cloudy
7:55 PM 62.6 °F 46.4 °F 55% 30.05 in 10.0 mi Calm Calm - N/A   Partly Cloudy
8:15 PM 60.8 °F 44.6 °F 55% 30.06 in 10.0 mi Calm Calm - N/A   Partly Cloudy
8:35 PM 60.8 °F 44.6 °F 55% 30.07 in 10.0 mi Calm Calm - N/A   Partly Cloudy
8:55 PM 60.8 °F 44.6 °F 55% 30.08 in 10.0 mi North 8.1 mph - N/A   Clear
9:15 PM 62.6 °F 46.4 °F 55% 30.09 in 10.0 mi NNE 9.2 mph - N/A   Clear
9:35 PM 62.6 °F 44.6 °F 52% 30.10 in 10.0 mi North 8.1 mph - N/A   Unknown
9:55 PM 60.8 °F 44.6 °F 55% 30.11 in 10.0 mi North 8.1 mph - N/A   Clear
10:15 PM 59.0 °F 42.8 °F 55% 30.11 in 10.0 mi North 6.9 mph - N/A   Clear
10:35 PM 59.0 °F 42.8 °F 55% 30.12 in 10.0 mi North 8.1 mph - N/A   Clear
10:55 PM 57.2 °F 42.8 °F 59% 30.11 in 10.0 mi NNE 5.8 mph - N/A   Clear
11:15 PM 57.2 °F 41.0 °F 55% 30.11 in 10.0 mi North 4.6 mph - N/A   Clear
11:35 PM 53.6 °F 37.4 °F 54% 30.11 in 10.0 mi NNE 4.6 mph - N/A   Clear
11:55 PM 53.6 °F 37.4 °F 54% 30.11 in 10.0 mi Calm Calm - N/A   Clear